Charlotte, NC

3:02 AM EST on December 13, 2017 (GMT -0500)
Charlotte-Douglas International

Weather History for KCLT - September, 2003

Change the Weather History Date:

Tuesday, September 16, 2003

  Actual Average Record
Temperature  
Mean Temperature 72 °F 71 °F  
Max Temperature 81 °F 81 °F 96 °F (1956)
Min Temperature 64 °F 61 °F 47 °F (2000)
Degree Days  
Heating Degree Days 0 1  
Month to date heating degree days 1  
Since 1 July heating degree days 1  
Cooling Degree Days 7 6  
Month to date cooling degree days 135  
Year to date cooling degree days 1412  
Growing Degree Days 22 (Base 50)    
Moisture  
Dew Point 58 °F    
Average Humidity 66    
Maximum Humidity 84    
Minimum Humidity 43    
Precipitation  
Precipitation 0.00 in 0.11 in 4.06 in (1945)
Month to date precipitation 1.71  
Year to date precipitation 30.31  
Snow  
Snow 0.00 in 0.00 in 0.00 in ()
Month to date snowfall 0.0  
Since 1 July snowfall 0.0  
Since 1 September snowfall 0.0  
Snow Depth -    
Sea Level Pressure  
Sea Level Pressure 30.12 in    
Wind  
Wind Speed 9 mph (NNE)    
Max Wind Speed 16 mph    
Max Gust Speed 22 mph    
Visibility 10 miles    
Events      
T = Trace of Precipitation, MM = Missing Value Source: NWS Daily Summary

Daily Weather History Graph

Daily Weather History Graph

Search for Another Location

Airport or City:

Trip Planner

Search our weather history database for the weather conditions in past years. The results will help you decide how hot, cold, wet, or windy it might be!

Date:

Astronomy

Sep. 16, 2003 Rise Set
Actual Time 7:07 AM EDT 7:29 PM EDT
Civil Twilight 6:41 AM EDT 7:55 PM EDT
Nautical Twilight 6:11 AM EDT 8:24 PM EDT
Astronomical Twilight 5:41 AM EDT 8:55 PM EDT
Moon 10:48 PM EDT (9/16) 12:38 PM EDT (9/16)
Length of Visible Light 13h 13m
Length of Day
12h 22m
Waning Gibbous, 70% of the Moon is Illuminated
Sep 16
Waning Gibbous
Sep 18
Last Quarter
Sep 25
New
Oct 2
First Quarter
Oct 10
Full

Hourly Weather History & Observations

Time (EDT) Temp. Heat Index Dew Point Humidity Pressure Visibility Wind Dir Wind Speed Gust Speed Precip Events Conditions
12:51 AM 70.0 °F - 64.0 °F 81% 30.06 in 10.0 mi NNE 9.2 mph - N/A   Overcast
1:51 AM 69.1 °F - 64.0 °F 84% 30.08 in 10.0 mi North 8.1 mph - N/A   Mostly Cloudy
2:51 AM 68.0 °F - 62.1 °F 81% 30.08 in 10.0 mi North 9.2 mph - N/A   Overcast
3:51 AM 66.9 °F - 61.0 °F 81% 30.09 in 10.0 mi North 6.9 mph - N/A   Mostly Cloudy
4:51 AM 66.0 °F - 61.0 °F 84% 30.09 in 10.0 mi NNE 6.9 mph - N/A   Mostly Cloudy
5:51 AM 66.0 °F - 61.0 °F 84% 30.09 in 10.0 mi North 9.2 mph - N/A   Overcast
6:51 AM 66.0 °F - 59.0 °F 78% 30.11 in 10.0 mi NNE 9.2 mph - N/A   Mostly Cloudy
7:51 AM 66.0 °F - 55.9 °F 70% 30.13 in 10.0 mi North 12.7 mph - N/A   Overcast
8:51 AM 66.9 °F - 55.0 °F 66% 30.15 in 10.0 mi NNE 10.4 mph - N/A   Overcast
9:51 AM 68.0 °F - 55.0 °F 63% 30.16 in 10.0 mi North 13.8 mph - N/A   Overcast
10:51 AM 71.1 °F - 54.0 °F 55% 30.18 in 10.0 mi NNE 16.1 mph 21.9 mph N/A   Mostly Cloudy
11:51 AM 75.0 °F - 55.9 °F 51% 30.18 in 10.0 mi NNE 12.7 mph 17.3 mph N/A   Mostly Cloudy
12:51 PM 75.9 °F - 55.9 °F 50% 30.17 in 10.0 mi North 12.7 mph 16.1 mph N/A   Mostly Cloudy
1:51 PM 78.1 °F - 55.9 °F 46% 30.14 in 10.0 mi NNE 10.4 mph - N/A   Mostly Cloudy
2:51 PM 80.1 °F 80.2 °F 55.9 °F 43% 30.12 in 10.0 mi North 11.5 mph - N/A   Scattered Clouds
3:51 PM 80.1 °F 80.2 °F 55.9 °F 43% 30.11 in 10.0 mi North 8.1 mph - N/A   Partly Cloudy
4:51 PM 80.1 °F 80.6 °F 57.9 °F 47% 30.10 in 10.0 mi NNW 9.2 mph - N/A   Partly Cloudy
5:51 PM 78.1 °F - 57.9 °F 50% 30.10 in 10.0 mi NNE 6.9 mph - N/A   Partly Cloudy
6:51 PM 73.0 °F - 59.0 °F 61% 30.10 in 10.0 mi North 5.8 mph - N/A   Partly Cloudy
7:51 PM 69.1 °F - 59.0 °F 70% 30.10 in 10.0 mi North 5.8 mph - N/A   Partly Cloudy
8:51 PM 66.9 °F - 57.0 °F 70% 30.12 in 10.0 mi North 6.9 mph - N/A   Partly Cloudy
9:51 PM 64.9 °F - 57.9 °F 78% 30.13 in 10.0 mi North 6.9 mph - N/A   Partly Cloudy
10:51 PM 66.0 °F - 55.9 °F 70% 30.14 in 10.0 mi NNE 5.8 mph - N/A   Partly Cloudy
11:51 PM 64.9 °F - 55.9 °F 73% 30.15 in 10.0 mi NE 4.6 mph - N/A   Clear